When you browse on this site, cookies collect data to enhance your experience and personalize the content and advertising you see.
Visit our Privacy Policy to learn more. By continuing to use the site, you agree to this use of cookies and data.
  • In Portugal
  • List of Countries
  • For 7 days
  • Water Temperature
  • Satellite Maps
  • Weather Map
  • Weather Widgets
  • user-avatar
    Login

    Hourly Weather Pomianowo

    Today, 18 December, Tuesday

    Time Temperature Precipitation Wind Pressure Humidity
    00:00 -3°C° 0 mm 2 mps 765 mmHg 83%
    01:00 -3°C° 0 mm 2 mps 765 mmHg 82%
    02:00 -3°C° 0 mm 2 mps 765 mmHg 82%
    03:00 -3°C° 0 mm 2 mps 765 mmHg 82%
    04:00 -3°C° 0 mm 2 mps 765 mmHg 83%
    05:00 -3°C° 0 mm 2 mps 766 mmHg 84%
    06:00 -3°C° 0 mm 2 mps 766 mmHg 85%
    07:00 -3°C° 0 mm 2 mps 766 mmHg 86%
    08:00 -2°C° 0 mm 3 mps 766 mmHg 86%
    09:00 -2°C° 0 mm 3 mps 766 mmHg 86%
    10:00 -2°C° 0 mm 3 mps 766 mmHg 86%
    11:00 -1°C° 0 mm 3 mps 766 mmHg 87%
    12:00 -1°C° 0 mm 3 mps 766 mmHg 87%
    13:00 0°C° 0 mm 3 mps 766 mmHg 89%
    14:00 0°C° 0 mm 3 mps 766 mmHg 91%
    15:00 -1°C° 0 mm 3 mps 766 mmHg 94%
    16:00 -1°C° 0 mm 3 mps 766 mmHg 96%
    17:00 -1°C° 0 mm 3 mps 766 mmHg 96%
    18:00 0°C° 0 mm 3 mps 766 mmHg 96%
    19:00 0°C° 0 mm 3 mps 766 mmHg 96%
    20:00 0°C° 0 mm 3 mps 766 mmHg 96%
    21:00 0°C° 0 mm 3 mps 765 mmHg 96%
    22:00 0°C° 0 mm 3 mps 765 mmHg 96%
    23:00 0°C° 0 mm 3 mps 765 mmHg 96%

    Tomorrow, 19 December, Wednesday

    Time Temperature Precipitation Wind Pressure Humidity
    00:00 0°C° 0 mm 3 mps 765 mmHg 96%
    01:00 -1°C° 0 mm 4 mps 765 mmHg 96%
    02:00 -1°C° 0 mm 4 mps 765 mmHg 96%
    03:00 -1°C° 0 mm 4 mps 765 mmHg 95%
    04:00 -1°C° 0 mm 4 mps 764 mmHg 95%
    05:00 -1°C° 0 mm 5 mps 764 mmHg 94%
    06:00 -1°C° 0 mm 5 mps 764 mmHg 92%
    07:00 -1°C° 0 mm 5 mps 763 mmHg 91%
    08:00 -2°C° 0 mm 6 mps 763 mmHg 86%
    09:00 -2°C° 0 mm 6 mps 763 mmHg 82%
    10:00 -2°C° 0 mm 7 mps 762 mmHg 77%
    11:00 -2°C° 0 mm 7 mps 762 mmHg 75%
    12:00 -1°C° 0 mm 7 mps 762 mmHg 74%
    13:00 -1°C° 0 mm 7 mps 761 mmHg 73%
    14:00 -1°C° 0 mm 7 mps 761 mmHg 75%
    15:00 -2°C° 0 mm 6 mps 760 mmHg 77%
    16:00 -2°C° 0 mm 6 mps 760 mmHg 80%
    17:00 -2°C° 0 mm 6 mps 760 mmHg 80%
    18:00 -2°C° 0 mm 6 mps 760 mmHg 80%
    19:00 -2°C° 0 mm 6 mps 760 mmHg 81%
    20:00 -1°C° 0.1 mm 5 mps 760 mmHg 81%
    21:00 -1°C° 0.1 mm 5 mps 759 mmHg 82%
    22:00 -1°C° 0.1 mm 5 mps 759 mmHg 83%
    23:00 -1°C° 0.2 mm 5 mps 759 mmHg 84%

    Day after tomorrow, 20 December, Thursday

    Time Temperature Precipitation Wind Pressure Humidity
    00:00 -1°C° 0.2 mm 4 mps 759 mmHg 85%
    01:00 -1°C° 0.2 mm 4 mps 759 mmHg 87%
    02:00 -1°C° 0.4 mm 4 mps 759 mmHg 89%
    03:00 -1°C° 0.4 mm 4 mps 759 mmHg 90%
    04:00 -1°C° 0.4 mm 4 mps 759 mmHg 92%
    05:00 -1°C° 0.3 mm 4 mps 759 mmHg 92%
    06:00 -1°C° 0.3 mm 4 mps 759 mmHg 92%
    07:00 -1°C° 0.3 mm 4 mps 759 mmHg 93%
    08:00 -1°C° 0.2 mm 4 mps 759 mmHg 93%
    09:00 -1°C° 0.2 mm 4 mps 759 mmHg 93%
    10:00 -1°C° 0.2 mm 4 mps 759 mmHg 92%
    11:00 -1°C° 0.3 mm 4 mps 759 mmHg 93%
    12:00 -1°C° 0.3 mm 4 mps 758 mmHg 93%
    13:00 0°C° 0.3 mm 3 mps 758 mmHg 93%
    14:00 0°C° 0.3 mm 3 mps 758 mmHg 94%
    15:00 0°C° 0.3 mm 3 mps 758 mmHg 94%
    16:00 0°C° 0.3 mm 3 mps 758 mmHg 95%
    17:00 0°C° 0.3 mm 3 mps 758 mmHg 95%
    18:00 0°C° 0.3 mm 3 mps 758 mmHg 96%
    19:00 0°C° 0.3 mm 3 mps 758 mmHg 96%
    20:00 0°C° 0.2 mm 3 mps 758 mmHg 96%
    21:00 0°C° 0.2 mm 3 mps 758 mmHg 96%
    22:00 +1°C° 0.2 mm 3 mps 757 mmHg 97%
    23:00 0°C° 0 mm 3 mps 757 mmHg 97%

    21 December, Friday

    Time Temperature Precipitation Wind Pressure Humidity
    00:00 0°C° 0 mm 3 mps 757 mmHg 96%
    01:00 0°C° 0 mm 3 mps 757 mmHg 96%
    02:00 0°C° 0 mm 3 mps 757 mmHg 96%
    03:00 0°C° 0 mm 3 mps 757 mmHg 96%
    04:00 0°C° 0 mm 3 mps 756 mmHg 96%
    05:00 0°C° 0 mm 3 mps 756 mmHg 96%
    06:00 -1°C° 0 mm 4 mps 756 mmHg 96%
    07:00 -1°C° 0 mm 4 mps 756 mmHg 97%
    08:00 0°C° 0 mm 4 mps 755 mmHg 97%
    09:00 0°C° 0 mm 4 mps 755 mmHg 97%
    10:00 0°C° 0 mm 4 mps 755 mmHg 97%
    11:00 +1°C° 0 mm 4 mps 755 mmHg 97%
    12:00 +1°C° 0 mm 4 mps 754 mmHg 97%
    13:00 +1°C° 0 mm 4 mps 754 mmHg 96%
    14:00 +1°C° 0 mm 4 mps 753 mmHg 96%
    15:00 +1°C° 0 mm 4 mps 752 mmHg 96%
    16:00 +1°C° 0 mm 5 mps 752 mmHg 95%
    17:00 +1°C° 0.2 mm 5 mps 751 mmHg 95%
    18:00 +1°C° 0.2 mm 6 mps 750 mmHg 94%
    19:00 +1°C° 0.2 mm 6 mps 749 mmHg 94%
    20:00 +1°C° 0.7 mm 6 mps 748 mmHg 94%
    21:00 0°C° 0.7 mm 7 mps 748 mmHg 93%
    22:00 0°C° 0.7 mm 7 mps 747 mmHg 93%
    23:00 +2°C° 0.8 mm 6 mps 747 mmHg 93%

    22 December, Saturday

    Time Temperature Precipitation Wind Pressure Humidity
    00:00 +3°C° 0.8 mm 6 mps 747 mmHg 92%
    01:00 +3°C° 0.8 mm 6 mps 746 mmHg 92%
    02:00 +4°C° 0.5 mm 7 mps 747 mmHg 91%
    03:00 +4°C° 0.5 mm 7 mps 747 mmHg 89%
    04:00 +4°C° 0.5 mm 8 mps 747 mmHg 88%
    05:00 +4°C° 0.2 mm 7 mps 747 mmHg 88%
    06:00 +4°C° 0.2 mm 7 mps 747 mmHg 88%
    07:00 +4°C° 0.2 mm 7 mps 747 mmHg 87%
    08:00 +4°C° 0.1 mm 6 mps 747 mmHg 88%
    09:00 +4°C° 0.1 mm 6 mps 747 mmHg 89%
    10:00 +4°C° 0.1 mm 6 mps 747 mmHg 90%
    11:00 +4°C° 0.7 mm 6 mps 747 mmHg 91%
    12:00 +4°C° 0.7 mm 6 mps 747 mmHg 92%
    13:00 +5°C° 0.7 mm 5 mps 746 mmHg 92%
    14:00 +5°C° 1.1 mm 5 mps 746 mmHg 92%
    15:00 +4°C° 1.1 mm 6 mps 746 mmHg 91%
    16:00 +4°C° 1.1 mm 6 mps 746 mmHg 91%
    17:00 +4°C° 0.2 mm 6 mps 746 mmHg 90%
    18:00 +4°C° 0.2 mm 6 mps 746 mmHg 88%
    19:00 +4°C° 0.2 mm 6 mps 747 mmHg 87%
    20:00 +4°C° 0.2 mm 7 mps 747 mmHg 86%
    21:00 +4°C° 0.2 mm 8 mps 747 mmHg 85%
    22:00 +3°C° 0.2 mm 9 mps 747 mmHg 84%
    23:00 +3°C° 0.5 mm 9 mps 748 mmHg 84%

    23 December, Sunday

    Time Temperature Precipitation Wind Pressure Humidity
    00:00 +3°C° 0.5 mm 10 mps 748 mmHg 84%
    01:00 +3°C° 0.5 mm 10 mps 749 mmHg 84%
    02:00 +3°C° 0.2 mm 10 mps 749 mmHg 84%
    03:00 +2°C° 0.2 mm 9 mps 750 mmHg 84%
    04:00 +2°C° 0.2 mm 9 mps 751 mmHg 84%
    05:00 +2°C° 0.1 mm 8 mps 751 mmHg 86%
    06:00 +3°C° 0.1 mm 7 mps 752 mmHg 87%
    07:00 +2°C° 0.1 mm 6 mps 752 mmHg 88%
    08:00 +2°C° 0.1 mm 5 mps 753 mmHg 89%
    09:00 +3°C° 0.1 mm 4 mps 753 mmHg 90%
    10:00 +3°C° 0.1 mm 3 mps 754 mmHg 91%
    11:00 +4°C° 0.4 mm 3 mps 754 mmHg 91%
    12:00 +4°C° 0.4 mm 3 mps 754 mmHg 91%
    13:00 +5°C° 0.4 mm 2 mps 754 mmHg 92%
    14:00 +5°C° 0.4 mm 2 mps 754 mmHg 91%
    15:00 +4°C° 0.4 mm 3 mps 754 mmHg 91%
    16:00 +4°C° 0.4 mm 3 mps 754 mmHg 91%
    17:00 +4°C° 0.5 mm 3 mps 755 mmHg 91%
    18:00 +4°C° 0.5 mm 3 mps 755 mmHg 92%
    19:00 +4°C° 0.5 mm 4 mps 756 mmHg 93%
    20:00 +3°C° 0.2 mm 4 mps 756 mmHg 92%
    21:00 +3°C° 0.2 mm 4 mps 757 mmHg 90%
    22:00 +3°C° 0.2 mm 4 mps 757 mmHg 89%
    23:00 +3°C° 0.1 mm 3 mps 758 mmHg 90%
    Show more